Regional Weather Roundup
Issued by NWS

Home | Current Version | Previous Version | Graphics & Text | Print | Product List | Glossary Off
Versions: 1 2 3 4 5 6 7 8 9 10 11 12 13 14 15 16 17 18 19 20 21 22 23 24 25 26 27 28 29 30 31 32 33 34 35 36 37 38 39 40 41 42 43 44 45 46 47 48 49 50

000
ASUS43 KMPX 252101
RWRMN
WEATHER ROUNDUP FOR MINNESOTA
NATIONAL WEATHER SERVICE TWIN CITIES/CHANHASSEN MN
300 PM CST SUN JAN 25 2015


NOTE: "FAIR" INDICATES FEW OR NO CLOUDS BELOW 12,000 FEET WITH NO
SIGNIFICANT WEATHER AND/OR OBSTRUCTIONS TO VISIBILITY. N/A MEANS
CURRENT SKY AND/OR WEATHER CONDITIONS ARE NOT AVAILABLE.

MNZ060>063-068>070-252200-
   Twin Cities Metro

CITY           SKY/WX    TMP DP  RH WIND       PRES   REMARKS
TWIN CITIES    SUNNY     27  12  53 N7        30.04R WCI  19
ST PAUL        SUNNY     26  12  55 NE6       30.06R WCI  19
CRYSTAL        SUNNY     28  13  53 E6        30.03R WCI  22
BLAINE         SUNNY     28  14  54 NE5       30.03R WCI  23
LAKEVILLE      PTSUNNY   21  18  86 NE6       30.03R WCI  14
EDEN PRAIRIE   SUNNY     27  13  55 NE6       30.03R WCI  20
SOUTH ST PAUL  SUNNY     26  15  63 NE6       30.04S WCI  19
LAKE ELMO      FAIR      27  14  59 E6        30.05R WCI  20
$$
MNZ001>005-007-008-013>017-022>024-027-028-252200-
   Northwest Minnesota

CITY           SKY/WX    TMP DP  RH WIND       PRES   REMARKS
BEMIDJI        CLOUDY    27  17  66 S6        29.97S WCI  20
HALLOCK        MOSUNNY   18  12  79 S12       29.97F WCI   5
ROSEAU         CLOUDY    18   9  68 S8        29.94F WCI   7
WARROAD        CLOUDY    16   7  67 S5        29.96F WCI   9
THIEF RVR FALL SUNNY     19  10  68 S7        29.97F WCI  10
CROOKSTON      SUNNY     21  14  73 S5        29.99F WCI  15
FOSSTON        CLOUDY    23  16  74 SW7       29.98F WCI  15
DETROIT LAKES  SUNNY     30  21  69 SW5       30.00R WCI  25
MOORHEAD       MOSUNNY   27  19  74 CALM      30.03S
PARK RAPIDS    CLOUDY    28  18  66 S7        29.97F WCI  21
MAHNOMEN       CLOUDY    25  18  76 SW7       29.99S WCI  17
$$
MNZ006-009>011-018-025>026-252200-
   North Central Minnesota

CITY           SKY/WX    TMP DP  RH WIND       PRES   REMARKS
BAUDETTE       CLOUDY    17   8  67 S8        29.96F WCI   7
FLAG ISLAND    CLOUDY    10   5  79 S10       29.96F WCI  -3
INTL FALLS     CLOUDY    16   5  62 SW3       29.99F
WASKISH        CLOUDY    19  12  73 CALM      29.98F
BIG FORK       CLOUDY    25  16  68 S8        29.98F WCI  16
LONGVILLE      MOSUNNY   27  14  59 SE5       29.98F WCI  21
GRAND RAPIDS   SUNNY     23  12  63 S8        29.99F WCI  14
CRANE LAKE     SUNNY     19   9  63 S8        30.02F WCI   9
ORR            MOSUNNY   21   9  58 S6        29.96F WCI  14
COOK           SUNNY     21  10  63 S6        29.99F WCI  14
WALKER         MOCLDY    26  16  65 S6        29.97F WCI  19
$$
MNZ012-019>021-037-252200-
   Northeast Minnesota

CITY           SKY/WX    TMP DP  RH WIND       PRES   REMARKS
DULUTH         FLURRIES  20  13  74 E13       30.00F WCI   7
ELY            MOSUNNY   18   7  62 S5        30.00F WCI  11
HIBBING        PTSUNNY   22  11  62 SW6       30.00F WCI  14
EVELETH        PTSUNNY   21  12  68 S8        30.01F WCI  12
DULUTH HARBOR  CLOUDY    25  18  74 E5        30.08F WCI  19
TWO HARBORS    LGT SNOW  21  16  79 E8        30.02F WCI  12
SILVER BAY     LGT SNOW  18  12  79 NE3       30.02F
GRAND MARAIS     N/A     17   7  64 CALM      30.09F
G MARAIS ARPRT PTSUNNY   10  -6  48 CALM      29.99F
$$
MNZ029>031-032-039>041-046>048-054>057-064-252200-
   West Central Minnesota

CITY           SKY/WX    TMP DP  RH WIND       PRES   REMARKS
FERGUS FALLS   MOSUNNY   25  19  80 NW3       30.04S
WHEATON        SUNNY     25  18  74 W6        30.05S WCI  18
MORRIS         MOSUNNY   27  23  86 W3        30.01S
ALEXANDRIA     CLOUDY    26  21  81 S6        30.01R WCI  19
ELBOW LAKE     CLOUDY    25  22  89 NW3       30.01S
WADENA         MOSUNNY   27  18  69 S3        29.98F
GLENWOOD       CLOUDY    27  21  80 CALM      30.02R
APPLETON       CLOUDY    28  25  86 NW3       30.03S
BENSON         CLOUDY    28  25  86 W5        30.03R WCI  23
ORTONVILLE     MOSUNNY   27  19  74 NW5       30.03F WCI  21
MADISON        CLOUDY    30  27  86 NW5       30.03F WCI  25
WILLMAR        CLOUDY    28  21  74 CALM      30.04R
$$
MNZ033>034-036-042>043-049>051-058-059-252200-
   Central Minnesota

CITY           SKY/WX    TMP DP  RH WIND       PRES   REMARKS
ST CLOUD       SUNNY     26  14  60 CALM      30.02F
SAUK CENTRE    CLOUDY    26  19  74 CALM      30.02S
PAYNESVILLE    CLOUDY    24  19  81 NE6       30.02F WCI  17
AITKIN         PTSUNNY   27  16  63 CALM      30.00F
PINE RIVER     SUNNY     27  16  63 SE5       30.02F WCI  21
BRAINERD       SUNNY     25  14  63 CALM      30.01F
STAPLES        SUNNY     27  16  63 CALM      29.99F
LONG PRAIRIE   CLOUDY    27  18  69 CALM      30.01S
LITTLE FALLS   SUNNY     28  14  54 CALM      30.02S
LITCHFIELD     SUNNY     27  21  80 NE6       30.02F WCI  20
BUFFALO        SUNNY     27  16  63 NE8       30.04S WCI  18
MAPLE LAKE     SUNNY     28  20  70 CALM      30.03F
$$
MNZ037-044-045-052-053-252200-
   East Central Minnesota

CITY           SKY/WX    TMP DP  RH WIND       PRES   REMARKS
PRINCETON      PTSUNNY   28  16  59 NE5       30.03F WCI  23
MORA           SUNNY     27  14  59 CALM      30.04F
CAMBRIDGE      SUNNY     27  16  63 N5        30.02S WCI  21
RUSH CITY      PTSUNNY   27  15  60 NE5       30.03F WCI  22
MOOSE LAKE     CLOUDY    27  12  54 E5        30.01F WCI  21
HINCKLEY       CLOUDY    28  16  59 E6        30.02F WCI  22
CLOQUET        FLURRIES  21  14  73 E7        30.01F WCI  13
MCGREGOR       CLOUDY    27  18  69 CALM      30.01F
$$
MNZ071>073-080-081-089-090-097-098-252200-
   Southwest Minnesota

CITY           SKY/WX    TMP DP  RH WIND       PRES   REMARKS
MONTEVIDEO     CLOUDY    30  28  93 NW7       30.04R WCI  23
GRANITE FALLS  CLOUDY    30  26  83 CALM      30.05R
CANBY          CLOUDY    28  26  89 CALM      30.04S
MARSHALL       CLOUDY    28  23  80 NW10      30.05R WCI  19
REDWOOD FALLS  CLOUDY    30  23  75 N3        30.03R
OLIVIA         CLOUDY    28  25  86 NE3       30.02S
PIPESTONE      CLOUDY    30  30 100 N3        30.01R FOG
WINDOM         CLOUDY    27  25  93 CALM      30.02R
WORTHINGTON    CLOUDY    28  27  93 N7        30.02R WCI  21
JACKSON        CLOUDY    30  27  86 VRB7      30.01R WCI  23
TRACY          CLOUDY    30  28  93 NW7       30.03R WCI  23
SLAYTON        FOG       28  28  99 CALM      30.02R VSB 1/2
$$
MNZ065>067-074>077-082>085-091>093-252200-
   South Central Minnesota

CITY           SKY/WX    TMP DP  RH WIND       PRES   REMARKS
MANKATO        CLOUDY    27  16  63 CALM      30.03R
NEW ULM        SUNNY     27  19  74 N6        30.03R WCI  20
ST JAMES       CLOUDY    28  23  80 N7        30.04R WCI  21
FAIRMONT       CLOUDY    28  21  74 N8        30.02R WCI  20
GLENCOE        SUNNY     26  18  71 N6        30.03S WCI  20
FARIBAULT      CLOUDY    25  18  74 N6        30.03R WCI  18
OWATONNA       CLOUDY    25  18  74 N7        30.01R WCI  17
WASECA         CLOUDY    25  19  80 N7        30.03R WCI  17
ALBERT LEA     CLOUDY    27  25  93 N7        29.99R WCI  19
$$
MNZ078>079-086>088-094>096-252200-
   Southeast Minnesota

CITY           SKY/WX    TMP DP  RH WIND       PRES   REMARKS
ROCHESTER      CLOUDY    25  17  72 NE8       29.98R WCI  16
RED WING       CLOUDY    27  16  63 N6        30.04R WCI  20
STANTON        CLOUDY    25  17  72 N8        30.03R WCI  16
DODGE CENTER   CLOUDY    25  19  80 NE7       29.98S WCI  17
WINONA         MOSUNNY   30  18  59 NE6       30.03R WCI  24
AUSTIN         CLOUDY    27  21  80 NE6       29.98R WCI  20
PRESTON        CLOUDY    26  20  77 N10       29.98R WCI  16
$$
ABBREVIATIONS USED IN REMARKS
   TC - TEMPERATURES IN CELSIUS
  WCI - WIND CHILL INDEX
   HX - HEAT INDEX
  VSB - VISIBILITY
$$


USA.gov is the U.S. government's official web portal to all federal, state and local government web resources and services.